Weather History for Pecs, Hungary

Change the Weather History Date:

Monday, March 18, 2013

  Actual Average Record
Temperature  
Mean Temperature 35 °F -  
Max Temperature 42 °F 57 °F - ()
Min Temperature 29 °F 40 °F - ()
Degree Days  
Heating Degree Days 30    
Moisture  
Dew Point 33 °F    
Average Humidity 85    
Maximum Humidity 93    
Minimum Humidity 70    
Precipitation  
Precipitation 0.08 in 0.06 in - ()
Sea Level Pressure  
Sea Level Pressure 29.62 in    
Wind  
Wind Speed 10 mph ()    
Max Wind Speed 20 mph    
Max Gust Speed -    
Visibility 5.8 miles    
Events Rain    
T = Trace of Precipitation, MM = Missing Value Source: Averaged Metar Reports

Daily Weather History Graph

Daily Weather History Graph

Search for Another Location

Airport:

Trip Planner

Search our weather history database for the weather conditions in past years. The results will help you decide how hot, cold, wet, or windy it might be!

Date:

Astronomy

Mar. 18, 2013 Rise Set
Actual Time 5:53 AM CET 5:56 PM CET
Civil Twilight 5:24 AM CET 6:26 PM CET
Nautical Twilight 4:49 AM CET 7:01 PM CET
Astronomical Twilight 4:13 AM CET 7:37 PM CET
Moon 9:20 AM CET (3/18) No Moon Set
Length of Visible Light 13h 02m
Length of Day
12h 02m
Waxing Crescent, 38% of the Moon is Illuminated
Mar 18
Waxing Crescent
Mar 19
First Quarter
Mar 27
Full
Apr 3
Last Quarter
Apr 10
New

Hourly Weather History & Observations

Time (CET) Temp. Windchill Dew Point Humidity Pressure Visibility Wind Dir Wind Speed Gust Speed Precip Events Conditions
12:45 AM 32.0 °F 24.8 °F 24.8 °F 75% 29.95 in - East 8.1 mph - N/A   Clear
1:00 AM 31 °F - 25 °F 70% 29.98 in 19 mi East 8.9 mph - -   Partly Cloudy
1:45 AM 30.2 °F 23.4 °F 24.8 °F 80% 29.92 in - East 6.9 mph - N/A   Clear
2:45 AM 30.2 °F 22.6 °F 26.6 °F 86% 29.89 in - East 8.1 mph - N/A   Clear
3:45 AM 30.2 °F 23.4 °F 26.6 °F 86% 29.86 in - ENE 6.9 mph - N/A   Clear
4:45 AM 30.2 °F 24.3 °F 26.6 °F 86% 29.86 in - East 5.8 mph - N/A   Clear
5:15 AM 30.2 °F 23.4 °F 26.6 °F 86% 29.83 in - ENE 6.9 mph - N/A   Clear
5:45 AM 30.2 °F 22.6 °F 26.6 °F 86% 29.83 in - East 8.1 mph - N/A   Clear
6:00 AM - - - N/A% - 6.2 mi ENE 8.1 mph - N/A Rain Light Rain
6:15 AM 30.2 °F 23.4 °F 26.6 °F 86% 29.83 in 6.2 mi East 6.9 mph - N/A   Overcast
6:45 AM 32.0 °F 24.8 °F 26.6 °F 80% 29.80 in 6.2 mi East 8.1 mph - N/A   Overcast
7:00 AM 31 °F - 27 °F 78% 29.85 in 9 mi East 6.7 mph - -   Partly Cloudy
7:15 AM 32.0 °F 24.8 °F 26.6 °F 80% 29.80 in 5.0 mi East 8.1 mph - N/A   Overcast
7:45 AM 32.0 °F 24.8 °F 28.4 °F 87% 29.77 in 5.0 mi East 8.1 mph - N/A   Overcast
7:54 AM 32.0 °F 24.2 °F 28.4 °F 87% 29.77 in - East 9.2 mph - N/A   Unknown
7:59 AM 33.8 °F 26.4 °F 28.4 °F 81% 29.80 in 5.0 mi East 9.2 mph - N/A Rain Light Rain
8:15 AM 33.8 °F 26.4 °F 28.4 °F 81% 29.77 in 5.0 mi East 9.2 mph - N/A Rain Light Rain
8:45 AM 35.6 °F 27.1 °F 30.2 °F 81% 29.74 in 6.2 mi East 12.7 mph - N/A   Mostly Cloudy
9:00 AM - - - N/A% - 6.2 mi ESE 13.8 mph - N/A   Overcast
9:15 AM 37.4 °F 28.9 °F 30.2 °F 75% 29.71 in 6.2 mi East 13.8 mph - N/A   Mostly Cloudy
9:45 AM 35.6 °F 26.6 °F 30.2 °F 81% 29.71 in 6.2 mi East 13.8 mph - N/A Rain Light Rain
10:15 AM 37.4 °F 29.3 °F 30.2 °F 75% 29.68 in 6.2 mi East 12.7 mph - N/A Rain Light Rain
10:45 AM 37.4 °F 28.9 °F 30.2 °F 75% 29.68 in 6.2 mi East 13.8 mph - N/A Rain Light Rain
11:15 AM 37.4 °F 29.3 °F 33.8 °F 87% 29.65 in 6.2 mi East 12.7 mph - N/A Rain Light Rain
11:45 AM 39.2 °F 31.2 °F 33.8 °F 81% 29.62 in 6.2 mi East 13.8 mph - N/A Rain Light Rain
12:00 PM - - - N/A% - 6.2 mi East 13.8 mph - N/A Rain Light Rain
12:45 PM 39.2 °F 31.6 °F 33.8 °F 81% 29.59 in 6.2 mi East 12.7 mph - N/A Rain Light Rain
1:00 PM 39 °F - 35 °F 78% 29.63 in 6 mi East 13.4 mph - - Rain Light Rain
1:15 PM 39.2 °F 30.8 °F 35.6 °F 87% 29.59 in 5.0 mi East 15.0 mph - N/A Rain Light Rain
1:35 PM 39.2 °F 31.6 °F 35.6 °F 87% 29.59 in 3.7 mi East 12.7 mph - N/A Rain Rain
1:45 PM 39.2 °F 31.2 °F 37.4 °F 93% 29.56 in 3.7 mi East 13.8 mph - N/A Rain Rain
2:12 PM 41.0 °F 32.5 °F 39.2 °F 93% 29.53 in 5.0 mi East 17.3 mph - N/A Rain Light Rain
2:15 PM 41.0 °F 32.5 °F 39.2 °F 93% 29.50 in 5.0 mi East 17.3 mph - N/A Rain Light Rain
2:45 PM 41.0 °F 32.5 °F 39.2 °F 93% 29.50 in 6.2 mi East 17.3 mph - N/A   Overcast
3:00 PM - - - N/A% - 5.0 mi East 16.1 mph - N/A Rain Light Rain
3:15 PM 41.0 °F 31.9 °F 37.4 °F 87% 29.47 in 6.2 mi East 19.6 mph - N/A   Overcast
3:45 PM 41.0 °F 32.5 °F 37.4 °F 87% 29.47 in 6.2 mi East 17.3 mph - N/A   Overcast
4:15 PM 41.0 °F 33.1 °F 37.4 °F 87% 29.44 in 5.0 mi ESE 15.0 mph - N/A Rain Light Rain
4:45 PM 41.0 °F 32.5 °F 37.4 °F 87% 29.44 in 5.0 mi ESE 17.3 mph - N/A Rain Light Rain
5:15 PM 41.0 °F 32.8 °F 37.4 °F 87% 29.42 in 5.0 mi ESE 16.1 mph - N/A Rain Light Rain
5:45 PM 41.0 °F 33.9 °F 37.4 °F 87% 29.42 in 5.0 mi East 12.7 mph - N/A Rain Light Rain
6:15 PM 41.0 °F 34.7 °F 37.4 °F 87% 29.42 in 5.0 mi East 10.4 mph - N/A   Overcast
6:45 PM 41.0 °F 34.3 °F 37.4 °F 87% 29.39 in 5.0 mi East 11.5 mph - N/A   Overcast
7:00 PM 41 °F - 38 °F 84% 29.41 in 5 mi East 11.2 mph - - Rain Light Rain
7:15 PM 41.0 °F 33.9 °F 37.4 °F 87% 29.39 in 5.0 mi East 12.7 mph - N/A   Overcast
7:45 PM 41.0 °F 34.7 °F 37.4 °F 87% 29.39 in 5.0 mi East 10.4 mph - N/A   Overcast
8:15 PM 41.0 °F 35.2 °F 37.4 °F 87% 29.36 in 5.0 mi East 9.2 mph - N/A   Overcast
8:45 PM 41.0 °F 35.8 °F 37.4 °F 87% 29.36 in 5.0 mi East 8.1 mph - N/A   Overcast
9:45 PM 39.2 °F 33.0 °F 37.4 °F 93% 29.36 in 5.0 mi ESE 9.2 mph - N/A   Overcast
10:45 PM 41.0 °F 32.8 °F 37.4 °F 87% 29.39 in 5.0 mi West 16.1 mph - N/A   Overcast
11:45 PM 42.8 °F 36.6 °F 41.0 °F 93% 29.39 in 5.0 mi WNW 11.5 mph - N/A Rain Rain